Powrót do katalogu

THORAD AGENA D DEB

AktywnyPO
NORAD 4822·DEBRIS·🇺🇸 United States

Wystrzelony Apr 8, 1970 z Vandenberg Space Force Base

Loading…

Następne Przeloty

TLE

Source: Space-Track
1  4822U 70025ED  26225.03382132  .00001401  00000-0  66977-3 0  9993
2  4822  99.4009  41.4342 0048925 299.3248  60.3043 14.20319990798662

Śledź THORAD AGENA D DEB w czasie rzeczywistym z AllMySat

Download on the App Store